Wind_Speed
51 52 47 41 40 41 41 40 47 50 44 46 50 54 50 42 43 46 51 51 48 51 50 48 49 53 57 59 58 55 53 51 56 55 50 47 48 50 53 56 59 56 58 57 54 55 54 54 59
56 56 54 48 45 48 50 52 54 51 51 50 54 53 51 47 48 51 56 58 54 55 55 53 53 59 59 63 60 58 56 58 57 53 51 50 52 57 61 59 58 58 56 58 58 55 56 59 56
55 55 50 49 55 50 55 53 57 57 54 55 51 56 53 49 54 57 60 58 56 57 56 54 55 62 61 64 63 62 62 59 54 54 53 55 59 59 57 58 58 58 60 63 64 65 64 65 62
50 50 52 55 55 56 57 52 53 56 55 55 57 56 54 51 54 56 59 61 59 60 56 54 55 60 61 64 66 65 61 55 54 56 58 60 63 62 63 60 59 61 60 64 71 72 74 73 67
54 52 57 61 60 60 59 60 57 57 57 53 53 58 57 50 58 58 59 60 60 62 59 57 57 61 61 64 66 65 61 60 55 60 61 67 66 66 63 61 63 63 60 61 64 70 78 77 76
57 55 58 62 64 59 57 61 60 58 61 59 55 58 59 53 57 54 55 59 61 60 59 58 58 61 63 67 68 67 64 62 59 63 68 68 69 65 66 66 64 62 59 55 53 56 61 75 82
64 63 54 58 54 54 54 55 58 64 61 57 59 63 61 56 50 52 55 59 63 62 60 60 60 62 62 68 68 65 68 67 66 68 71 71 68 72 66 59 58 57 54 52 50 51 52 56 66
68 66 57 55 56 57 54 48 51 54 59 58 57 61 61 60 56 53 57 64 68 68 63 60 60 61 66 67 67 67 68 68 68 70 72 71 72 66 59 55 56 52 50 49 50 50 51 54 57
70 70 67 65 61 62 64 61 59 54 58 59 63 60 58 59 61 58 60 64 66 68 64 62 62 63 66 68 67 66 67 69 72 72 74 74 65 57 57 57 53 52 49 48 48 49 48 51 55
74 71 70 70 67 66 66 66 64 59 63 63 61 69 66 65 64 60 61 65 67 66 65 60 65 63 65 68 67 67 69 68 72 74 76 66 60 60 57 53 51 50 49 49 47 49 47 47 51
81 71 72 72 73 73 70 71 70 69 64 67 63 63 67 69 70 67 67 68 68 65 61 61 64 66 66 69 67 70 69 72 74 77 70 60 61 54 49 48 47 47 45 45 47 48 46 46 48
80 77 81 78 75 75 75 73 73 75 68 69 69 70 63 65 62 62 69 65 67 65 64 67 65 66 69 71 70 69 70 72 76 71 65 60 55 50 47 44 41 40 41 42 43 45 47 48 48
78 78 85 79 79 77 79 76 76 75 73 71 74 73 67 63 63 60 59 64 67 67 71 69 62 68 70 72 69 71 72 74 75 69 62 60 53 48 45 43 41 40 39 38 40 42 45 48 49
79 82 80 80 79 79 82 76 77 76 72 73 73 69 65 60 61 62 65 67 68 72 72 69 64 68 70 71 69 72 74 77 71 65 59 57 51 45 44 42 38 35 33 35 37 38 40 44 46
88 89 84 80 82 86 90 75 71 73 75 72 69 68 60 63 64 69 70 66 66 73 70 68 66 68 70 71 69 72 73 75 67 61 56 53 48 45 43 39 34 31 26 32 31 33 35 38 41
90 89 82 76 81 81 86 63 71 73 77 72 69 70 65 62 69 70 69 63 68 70 68 68 68 66 69 67 69 72 74 71 62 58 53 52 47 44 40 35 30 27 25 26 29 31 35 39 42
90 83 77 78 81 81 85 67 70 76 78 76 71 66 66 67 70 69 68 64 68 66 68 65 68 66 66 65 69 70 70 66 59 56 51 48 45 41 36 31 28 26 28 32 34 39 41 44 44
80 82 84 84 82 90 88 75 72 80 82 80 73 69 70 67 65 64 62 63 67 64 64 67 65 65 64 65 69 71 67 61 56 53 49 46 42 39 36 34 32 27 34 39 43 46 45 44 44
84 93 87 83 83 96 90 83 74 79 83 78 80 71 67 67 64 64 61 64 63 62 63 63 63 64 62 66 69 64 62 56 53 49 47 44 39 35 35 38 34 33 40 45 45 45 42 40 39
94 98 86 81 81 89 89 92 84 81 79 76 72 68 68 67 66 67 68 67 60 60 64 60 60 60 62 66 62 63 56 53 49 45 45 41 35 38 40 43 40 40 40 41 39 34 30 29 30
93 93 83 84 84 90 88 89 74 71 74 73 71 69 63 63 65 68 68 67 60 61 60 57 58 57 63 60 60 57 53 49 45 43 41 36 38 41 42 41 36 31 36 29 26 24 21 20 19
83 79 80 81 83 83 88 77 70 67 68 70 67 62 64 61 63 64 63 58 56 58 54 53 53 58 60 55 57 50 47 43 42 41 35 37 40 37 37 36 33 29 25 21 19 18 16 14 16
70 75 74 78 75 78 73 71 56 65 67 68 67 65 61 61 61 59 54 54 55 52 48 48 53 57 52 55 49 47 42 39 40 35 35 36 32 33 37 32 27 23 19 15 11 10 9 9 11
75 77 73 72 69 64 56 58 45 53 56 59 60 58 57 58 57 53 50 50 47 45 43 47 52 49 49 47 44 43 36 36 35 32 32 29 32 32 30 24 20 16 13 8 6 2 1 4 5
82 77 73 71 63 49 46 51 43 48 44 48 53 53 54 54 50 48 47 42 39 37 42 48 45 44 44 42 43 36 31 32 29 30 32 29 30 29 23 18 14 9 4 4 6 5 4 5 3
83 81 73 62 55 53 49 44 40 39 41 43 44 45 44 44 40 43 38 34 32 37 42 39 39 42 39 39 36 28 27 23 25 30 28 28 28 21 14 10 4 3 5 6 5 3 5 7 5
85 89 61 70 63 56 44 33 42 39 39 40 39 31 31 30 32 28 27 27 32 34 30 33 37 35 36 35 26 23 21 19 22 23 24 25 21 12 6 4 3 4 3 6 7 5 7 6 7
96 74 83 75 66 52 44 34 41 43 34 31 29 14 21 22 20 24 25 26 27 25 28 33 31 32 34 25 19 20 13 16 22 17 21 23 15 9 4 3 3 3 5 7 7 4 4 7 9
91 88 80 75 68 59 49 37 46 40 31 27 18 13 20 23 27 22 21 21 21 24 29 27 27 33 27 17 17 9 7 16 14 14 22 19 10 2 3 2 5 4 5 5 4 6 4 10 20
91 86 80 74 62 52 41 45 39 30 28 26 17 18 23 22 21 23 18 16 18 26 24 23 27 28 18 15 12 4 6 13 13 17 18 12 3 3 2 2 5 6 6 9 9 8 13 20 47
Wind_Direction
251 251 254 252 256 258 258 262 261 261 270 274 278 283 289 300 303 301 302 302 299 300 304 308 309 305 309 310 310 306 306 307 308 302 299 294 291 284 278 273 273 270 268 267 263 255 246 240 243
251 252 254 256 262 263 259 260 261 264 270 274 279 283 286 292 298 297 299 301 297 301 302 305 308 308 306 307 306 306 309 309 305 303 299 295 291 289 283 277 275 270 265 261 257 246 239 237 238
249 251 250 251 256 263 259 259 263 265 274 278 277 280 281 287 293 294 293 299 298 301 302 303 305 306 304 305 306 310 309 308 306 304 299 297 296 294 286 277 267 265 259 249 247 245 242 237 240
254 254 245 247 249 254 264 262 263 268 274 276 276 276 279 284 290 291 293 297 298 300 299 301 304 304 304 306 306 309 307 307 307 305 303 303 303 297 291 278 269 267 261 255 249 245 243 241 241
256 257 245 246 252 257 261 264 267 271 276 274 276 280 277 284 292 292 293 295 297 298 297 299 302 301 303 306 309 308 307 309 307 306 305 306 304 299 293 287 283 279 271 268 264 252 247 246 245
252 255 253 251 257 267 263 262 268 269 271 270 273 279 279 281 290 288 290 296 296 297 299 300 301 301 303 306 308 307 307 309 309 307 310 309 303 297 293 289 285 281 275 271 264 258 255 248 245
253 254 256 251 257 263 263 266 268 269 268 272 271 274 280 286 282 287 292 298 300 298 297 298 301 302 305 306 306 306 309 310 310 311 312 308 302 299 295 289 284 282 277 271 265 262 257 252 249
251 253 256 259 266 266 264 265 272 270 271 277 276 278 278 281 283 290 295 297 298 298 302 301 301 302 305 306 306 304 311 311 310 312 311 306 301 298 293 288 283 279 274 269 266 262 255 251 248
253 251 253 258 258 263 266 271 271 276 282 284 277 276 276 278 284 290 296 294 296 297 298 300 303 304 304 304 305 306 310 312 311 314 309 304 302 296 291 288 282 279 276 271 266 261 260 253 249
253 251 253 258 262 262 265 269 275 274 283 283 285 277 278 277 282 285 290 290 294 295 299 301 303 303 304 304 305 309 312 312 312 312 308 306 302 297 292 288 285 280 276 272 267 263 258 252 249
252 252 255 258 262 263 265 268 272 282 282 280 281 282 274 276 277 281 287 288 289 295 296 301 302 300 303 303 307 310 313 311 314 309 310 306 305 300 299 294 286 281 277 271 266 266 264 254 247
255 256 258 260 260 262 263 266 273 276 282 278 276 277 280 282 281 280 286 286 294 298 299 299 299 303 303 305 308 310 312 313 313 312 308 305 305 304 299 297 292 286 278 270 264 260 258 256 250
257 259 257 260 264 265 267 269 273 277 279 278 271 276 279 278 282 290 285 289 292 297 300 299 300 302 302 304 309 311 310 313 313 311 307 307 306 304 301 297 293 287 280 274 268 262 256 252 250
257 256 257 260 264 266 270 269 272 275 274 272 273 275 279 279 285 287 288 289 293 295 297 299 300 298 302 305 310 311 311 314 313 308 310 311 306 308 304 301 297 290 284 284 277 269 261 255 251
255 257 260 263 266 265 265 267 271 267 266 267 272 276 279 280 291 297 286 288 289 291 296 297 297 299 301 306 309 309 312 313 310 310 313 310 310 309 307 303 300 295 286 284 277 272 268 261 254
254 257 260 261 259 261 262 264 262 264 265 272 277 280 283 285 296 289 284 287 287 290 293 295 297 300 302 307 307 309 312 311 309 314 313 310 311 312 308 306 300 286 280 275 273 271 272 266 260
257 261 258 255 258 255 258 257 260 263 271 278 279 281 284 285 288 286 284 284 284 290 291 295 297 299 304 306 306 309 310 308 310 313 312 311 313 311 306 299 292 281 271 276 271 278 277 270 266
253 251 260 260 258 260 264 268 266 269 273 275 275 279 280 280 282 285 284 279 282 289 291 290 295 300 304 305 307 309 310 306 311 313 311 313 310 306 299 296 293 272 275 268 272 285 277 268 266
251 258 259 258 254 262 266 268 269 268 271 270 272 273 271 274 274 278 277 279 281 286 287 289 294 300 304 304 307 308 307 309 313 310 314 314 309 302 297 297 295 280 276 284 285 283 278 273 269
254 257 257 252 253 259 264 269 273 268 268 267 267 266 267 271 273 274 274 274 279 282 283 290 295 299 301 304 307 307 305 313 310 313 316 312 306 303 303 303 297 287 283 288 286 282 274 267 266
252 256 253 253 253 262 269 269 265 265 265 264 263 262 266 268 269 270 271 273 277 279 283 291 294 298 301 305 305 304 308 311 309 315 312 305 303 308 309 307 302 293 295 292 282 276 273 267 261
254 252 251 255 259 264 265 267 265 262 262 260 264 266 267 267 267 268 270 274 276 278 285 289 294 298 302 304 304 305 310 307 314 313 307 304 312 312 310 306 305 302 299 290 283 278 270 261 252
250 249 250 253 257 260 263 266 262 264 261 269 271 271 269 265 265 268 271 270 272 278 285 291 295 298 301 304 303 310 307 312 311 311 305 316 314 307 305 307 311 309 301 299 289 277 262 249 245
242 247 251 254 257 265 260 266 264 261 271 270 266 266 264 263 264 266 266 268 272 280 287 291 295 298 302 300 304 308 309 310 314 306 315 314 309 306 308 312 312 307 306 308 311 347 207 214 226
245 249 253 258 265 265 260 267 254 271 275 268 263 263 263 261 262 260 262 268 275 283 287 292 294 300 298 302 307 308 308 312 306 315 316 313 313 314 315 316 318 316 324 20 56 68 63 106 139
242 246 250 254 254 253 254 262 257 272 273 266 262 261 261 259 253 254 260 268 280 282 287 291 298 297 296 307 307 306 308 308 311 319 311 316 318 316 319 321 337 16 48 52 47 60 86 97 96
241 244 246 245 246 251 254 251 262 275 268 265 268 264 256 247 252 258 265 275 278 281 288 299 298 296 307 308 302 306 307 303 324 316 317 324 324 319 320 327 7 78 74 66 79 83 118 101 97
239 238 239 244 248 249 250 249 264 274 269 272 273 258 239 237 247 254 266 266 269 282 301 298 296 303 310 300 306 308 293 318 321 316 322 332 328 304 299 336 83 105 86 73 71 82 109 109 122
236 238 240 239 242 243 240 239 267 269 267 268 258 226 218 225 242 255 252 261 278 295 301 296 303 309 303 303 317 293 310 336 326 322 324 326 328 279 269 121 168 125 86 96 111 93 91 112 128
230 233 234 234 236 235 237 250 246 255 258 252 227 221 221 237 246 241 255 276 294 302 296 301 311 308 298 329 315 238 352 353 328 313 324 327 3 316 128 161 154 150 124 108 105 116 126 125 134
Height
10931 10933 10933 10935 10937 10937 10937 10937 10936 10937 10935 10935 10933 10933 10934 10932 10930 10929 10927 10925 10923 10921 10919 10917 10914 10909 10903 10898 10894 10889 10884 10879 10875 10870 10866 10863 10859 10857 10853 10850 10847 10843 10841 10839 10840 10842 10846 10847 10849
10923 10926 10926 10928 10929 10930 10930 10931 10929 10931 10930 10929 10928 10926 10928 10926 10924 10921 10920 10917 10915 10913 10911 10908 10905 10899 10894 10888 10884 10879 10873 10868 10863 10858 10854 10850 10847 10844 10839 10836 10832 10830 10827 10825 10825 10828 10831 10834 10835
10914 10916 10918 10921 10921 10922 10920 10925 10920 10923 10924 10923 10921 10920 10922 10921 10918 10914 10912 10909 10907 10905 10902 10900 10896 10890 10885 10879 10871 10867 10862 10857 10851 10846 10842 10838 10834 10828 10823 10820 10816 10814 10812 10811 10810 10811 10814 10818 10822
10907 10908 10910 10911 10912 10913 10915 10917 10917 10916 10917 10916 10913 10912 10914 10913 10910 10907 10904 10900 10899 10897 10894 10890 10887 10880 10874 10868 10859 10854 10850 10846 10840 10834 10830 10824 10818 10812 10807 10804 10801 10800 10797 10797 10796 10795 10796 10800 10805
10897 10899 10902 10902 10903 10906 10910 10905 10910 10907 10907 10910 10907 10900 10903 10911 10902 10899 10896 10892 10890 10887 10885 10881 10877 10870 10865 10857 10849 10842 10838 10833 10828 10822 10817 10809 10802 10796 10790 10786 10781 10778 10778 10778 10779 10780 10782 10785 10788
10888 10891 10893 10895 10896 10896 10901 10898 10897 10899 10901 10901 10899 10893 10893 10899 10895 10891 10887 10884 10880 10878 10875 10872 10866 10861 10855 10846 10838 10831 10827 10820 10815 10808 10801 10793 10786 10781 10774 10767 10761 10757 10757 10758 10759 10761 10763 10766 10770
10877 10880 10883 10885 10886 10885 10889 10891 10888 10890 10892 10891 10892 10885 10884 10889 10887 10883 10879 10874 10869 10867 10864 10861 10855 10850 10844 10836 10827 10821 10816 10808 10802 10794 10785 10778 10770 10763 10756 10750 10746 10743 10741 10741 10743 10745 10747 10748 10751
10867 10870 10875 10875 10874 10876 10876 10882 10881 10884 10883 10885 10882 10877 10875 10876 10878 10875 10870 10864 10858 10854 10853 10848 10845 10840 10834 10826 10818 10811 10805 10797 10790 10782 10772 10765 10757 10748 10741 10737 10733 10730 10728 10727 10727 10730 10732 10736 10737
10852 10862 10865 10861 10861 10863 10865 10871 10871 10877 10874 10875 10872 10869 10867 10870 10866 10867 10861 10854 10848 10844 10843 10839 10834 10828 10821 10815 10808 10802 10794 10786 10777 10767 10760 10752 10742 10734 10728 10722 10720 10716 10714 10713 10714 10715 10717 10720 10723
10842 10850 10854 10848 10849 10853 10855 10859 10860 10868 10865 10866 10863 10856 10860 10860 10859 10860 10854 10847 10841 10836 10831 10831 10823 10818 10810 10803 10797 10790 10782 10774 10764 10755 10748 10736 10728 10721 10716 10710 10704 10703 10700 10699 10699 10701 10703 10706 10708
10830 10843 10837 10838 10840 10844 10847 10848 10852 10851 10859 10851 10854 10847 10850 10850 10853 10850 10844 10838 10833 10827 10823 10822 10814 10805 10799 10792 10787 10778 10771 10763 10753 10744 10733 10724 10717 10709 10701 10696 10692 10689 10688 10687 10687 10688 10689 10692 10696
10815 10828 10822 10827 10829 10833 10836 10839 10843 10843 10844 10841 10839 10833 10839 10840 10841 10838 10835 10828 10823 10818 10816 10811 10804 10795 10787 10781 10775 10767 10760 10751 10743 10732 10720 10714 10705 10697 10691 10685 10680 10677 10676 10675 10676 10677 10678 10680 10683
10811 10811 10806 10815 10816 10823 10824 10831 10833 10831 10831 10827 10826 10822 10828 10830 10829 10826 10823 10818 10812 10808 10803 10798 10795 10785 10776 10770 10765 10755 10747 10740 10731 10720 10710 10701 10695 10687 10681 10676 10671 10667 10664 10664 10664 10665 10666 10668 10670
10792 10791 10800 10803 10807 10812 10810 10818 10819 10821 10815 10809 10811 10814 10818 10820 10819 10815 10809 10806 10801 10796 10792 10787 10783 10775 10767 10759 10754 10744 10735 10729 10719 10710 10699 10691 10684 10677 10672 10666 10660 10656 10653 10652 10651 10652 10654 10655 10657
10771 10776 10788 10799 10795 10799 10790 10813 10812 10804 10796 10798 10801 10804 10810 10809 10806 10802 10798 10798 10792 10784 10783 10777 10771 10766 10757 10750 10742 10735 10726 10716 10708 10698 10689 10681 10674 10667 10661 10655 10650 10648 10646 10644 10643 10643 10643 10644 10645
10760 10763 10779 10783 10776 10782 10770 10812 10790 10786 10780 10790 10792 10790 10796 10797 10794 10790 10787 10788 10780 10777 10774 10766 10759 10756 10747 10741 10733 10726 10718 10706 10698 10689 10681 10671 10664 10657 10652 10647 10643 10642 10640 10639 10637 10635 10635 10634 10635
10753 10761 10757 10760 10759 10759 10750 10789 10780 10768 10770 10779 10783 10783 10785 10785 10782 10778 10778 10777 10770 10767 10761 10756 10749 10744 10739 10733 10725 10717 10708 10699 10688 10680 10671 10663 10654 10648 10644 10640 10638 10636 10633 10631 10629 10627 10626 10623 10624
10730 10728 10738 10749 10747 10737 10745 10771 10768 10760 10762 10768 10771 10775 10775 10773 10769 10767 10767 10764 10758 10757 10752 10745 10741 10735 10730 10724 10716 10707 10699 10689 10681 10670 10662 10654 10646 10641 10638 10634 10632 10629 10625 10619 10618 10615 10612 10611 10610
10709 10715 10729 10734 10729 10720 10739 10749 10760 10752 10750 10756 10761 10763 10760 10760 10757 10754 10753 10750 10748 10746 10741 10736 10732 10727 10722 10715 10707 10699 10690 10680 10671 10662 10653 10646 10639 10635 10632 10626 10622 10618 10613 10609 10606 10602 10600 10599 10599
10693 10701 10716 10712 10716 10707 10726 10737 10748 10742 10741 10742 10744 10746 10746 10746 10746 10741 10738 10737 10739 10736 10729 10727 10724 10720 10714 10706 10698 10690 10681 10672 10662 10654 10645 10638 10634 10629 10624 10617 10611 10606 10601 10598 10595 10592 10591 10590 10589
10678 10692 10690 10695 10693 10700 10714 10725 10727 10731 10728 10727 10727 10730 10736 10733 10731 10728 10727 10727 10728 10724 10721 10719 10716 10711 10705 10698 10690 10681 10673 10665 10654 10647 10641 10633 10629 10622 10614 10606 10601 10596 10594 10590 10587 10586 10584 10583 10584
10660 10667 10667 10679 10686 10700 10691 10715 10714 10712 10715 10709 10715 10720 10719 10722 10719 10717 10718 10719 10716 10713 10713 10712 10708 10702 10697 10689 10681 10673 10666 10657 10648 10642 10635 10630 10621 10614 10607 10600 10595 10591 10588 10585 10583 10581 10580 10580 10581
10655 10635 10656 10663 10676 10680 10690 10694 10704 10695 10697 10706 10707 10708 10710 10707 10706 10707 10708 10708 10705 10706 10706 10704 10699 10694 10688 10681 10673 10666 10658 10648 10642 10636 10630 10623 10616 10608 10602 10595 10591 10587 10585 10583 10581 10579 10578 10578 10579
10628 10628 10641 10651 10664 10675 10679 10687 10692 10679 10697 10695 10693 10694 10695 10695 10695 10697 10698 10697 10698 10699 10698 10695 10691 10686 10680 10673 10666 10658 10649 10643 10636 10631 10626 10619 10613 10605 10598 10593 10589 10586 10584 10581 10580 10579 10578 10577 10579
10611 10621 10633 10643 10657 10674 10668 10675 10677 10680 10686 10683 10679 10680 10683 10684 10686 10688 10689 10690 10692 10692 10691 10687 10683 10678 10672 10666 10658 10650 10643 10638 10633 10627 10621 10616 10609 10601 10596 10592 10588 10586 10584 10582 10581 10581 10580 10580 10582
10601 10609 10625 10641 10647 10653 10658 10667 10667 10674 10674 10671 10670 10671 10672 10676 10677 10679 10682 10684 10685 10685 10683 10680 10675 10670 10665 10657 10651 10644 10638 10634 10629 10624 10618 10612 10605 10600 10596 10592 10589 10587 10585 10585 10585 10584 10584 10584 10585
10596 10591 10635 10620 10633 10642 10653 10661 10658 10664 10664 10662 10662 10664 10665 10667 10670 10673 10676 10678 10679 10678 10676 10673 10668 10663 10656 10650 10645 10639 10634 10631 10627 10622 10616 10610 10604 10600 10596 10593 10590 10589 10589 10589 10588 10588 10587 10587 10587
10562 10608 10593 10612 10629 10641 10645 10651 10652 10654 10655 10654 10655 10657 10659 10661 10665 10668 10671 10673 10672 10671 10670 10666 10661 10656 10650 10645 10639 10634 10631 10629 10625 10620 10615 10609 10604 10599 10596 10594 10593 10593 10593 10593 10593 10592 10591 10592 10593
10559 10570 10593 10606 10618 10629 10635 10642 10644 10648 10648 10648 10651 10653 10656 10660 10663 10665 10667 10667 10667 10665 10663 10660 10656 10650 10645 10639 10633 10630 10630 10627 10623 10619 10615 10609 10604 10600 10597 10595 10596 10596 10596 10596 10596 10596 10594 10596 10600
10546 10559 10580 10596 10613 10623 10630 10633 10635 10641 10642 10643 10646 10650 10656 10658 10660 10661 10663 10663 10661 10659 10657 10655 10650 10644 10639 10633 10630 10630 10629 10627 10623 10619 10614 10609 10605 10602 10599 10598 10598 10599 10599 10599 10598 10598 10599 10602 10606